Terminal Aerodrome Forecast
Issued by NWS

Home | Current Version | Previous Version | Text Only | Print | Product List | Glossary On
Versions: 1 2 3 4 5 6 7 8 9 10 11 12 13 14 15 16
000
FTUS41 KGYX 211743
TAFRKD
TAF
KRKD 211743Z 2118/2218 11008KT P6SM BKN120
     FM212300 VRB03KT P6SM BKN080
     FM220800 07005KT 3SM BR BKN010
     FM221400 09007KT P6SM BKN035
      AMD LTD TO CLD VIS AND WIND=

USA.gov is the U.S. government's official web portal to all federal, state and local government web resources and services.